ARIANE 2 DEB, 28569

Orbit data source: Space-Track

ARIANE 2 DEB, 28569 is space debris in HEO originally from a launch on Fri, 27 Jan 1989 UTC launched from the French Guiana (FRGUI). Debris objects in space refer to the collection of defunct objects orbiting the Earth. Examples of debris include non-operational satellites, rocket bodies, and fragments generated from explosions, collisions, or faulty payload assembly.

Loading next visibility...
Identifier
28569, 1989-006AL
Orbit
HEO
Country
Flag of FRFR
Related business
Manufacturer
EADS/LV
Mission
Spacecraft
Bus & Motor
Unknown
Mass
Unknown
Launch date (UTC)
1989-01-27 (37 years ago)
Launch vehicle
Unknown
Launch site
French Guiana (FRGUI)
Object type
Payload
Rocket body
Debris
Shape & HBR
Unknown shape, 0.2 m
Radar Cross Section
Medium (>0.1 m² and <1 m²)

Expand to show TLE details & history
Last TLE update: 2 days ago

TLE from 2 days ago
0 ARIANE 2 DEB
1 28569U 89006AL  26206.85114221  .00000602  00000-0  77401-2 0  9992
2 28569   7.8446 116.6731 7130435 358.5820 256.3774  2.31244290187647
Epoch: 2026-07-25T20:25Z
TLE epoch observation values (Epoch: 2026-07-25T20:25:38.686Z)
Latitude
-2.50753°
Longitude
65.09331°
Altitude
29,617.196 km
Speed
2.376 km/s
True Right ascension
21h 00m 14s
True Declination
-2° 30' 16"
Sunlit
Object was in daylight at epoch
Visualization orbit readout
Latitude
Unknown
Longitude
Unknown
Altitude
Unknown
Speed
Unknown
Apparent Right ascension
Unknown
Apparent Declination
Unknown
Sunlit
N/A
Visualization observer readout
Local Sidereal Time
22:26:09
Azimuth
Unknown
Elevation
Unknown
Doppler factor
Unknown
Orbital elements
Apogee altitude
35,010.61 km
Perigee altitude
555.003 km
Semi-major axis
24,160.943 km
Eccentricity
0.71304
Inclination
7.8446°
RAAN
116.6731°
Arg. of periapsis
358.582°
True anomaly
200.02272°
Mean anomaly
256.3774°
Eccentric anomaly
226.66286°
Mean motion
0.57793 °/min
Orbital period
622.92 mins
BSTAR
0.0077401
Loading maneuver chart data...
Computing Atmospheric mass density...
Loading historical data...
Loading historical data...
Loading historical data...
Loading historical data...
Loading historical data...
Loading historical data...
Loading historical data...

Documentation

Showing up to 5 results
|